When you browse on this site, cookies collect data to enhance your experience and personalize the content and advertising you see.
Visit our Privacy Policy to learn more. By continuing to use the site, you agree to this use of cookies and data.
  • In Czech Republic
  • List of Countries
  • For 7 days
  • Water Temperature
  • Weather Map
  • Weather Widgets
  • user-avatar
    Login

    Hourly Weather Viedma

    Today, 28 February, Friday

    Time Temperature Precipitation Wind Pressure Humidity
    00:00 +19°C° 0 mm 3 mps 756 mmHg 63%
    01:00 +18°C° 0 mm 3 mps 756 mmHg 64%
    02:00 +18°C° 0 mm 3 mps 756 mmHg 66%
    03:00 +18°C° 0 mm 3 mps 756 mmHg 69%
    04:00 +17°C° 0 mm 3 mps 757 mmHg 73%
    05:00 +17°C° 0 mm 3 mps 757 mmHg 76%
    06:00 +18°C° 0 mm 3 mps 758 mmHg 71%
    07:00 +20°C° 0 mm 3 mps 758 mmHg 66%
    08:00 +21°C° 0 mm 4 mps 759 mmHg 61%
    09:00 +24°C° 0 mm 3 mps 759 mmHg 52%
    10:00 +26°C° 0 mm 3 mps 759 mmHg 43%
    11:00 +29°C° 0 mm 3 mps 759 mmHg 34%
    12:00 +30°C° 0 mm 4 mps 759 mmHg 32%
    13:00 +32°C° 0 mm 4 mps 759 mmHg 29%
    14:00 +33°C° 0 mm 5 mps 758 mmHg 27%
    15:00 +30°C° 0 mm 5 mps 758 mmHg 30%
    16:00 +29°C° 0 mm 6 mps 758 mmHg 32%
    17:00 +28°C° 0 mm 7 mps 757 mmHg 35%
    18:00 +26°C° 0 mm 6 mps 757 mmHg 41%
    19:00 +23°C° 0 mm 4 mps 757 mmHg 48%
    20:00 +21°C° 0 mm 3 mps 758 mmHg 54%
    21:00 +20°C° 0 mm 3 mps 758 mmHg 57%
    22:00 +20°C° 0 mm 3 mps 758 mmHg 60%
    23:00 +19°C° 0 mm 3 mps 759 mmHg 63%

    Tomorrow, 29 February, Saturday

    Time Temperature Precipitation Wind Pressure Humidity
    00:00 +19°C° 0 mm 2 mps 759 mmHg 63%
    01:00 +19°C° 0 mm 2 mps 759 mmHg 64%
    02:00 +19°C° 0 mm 2 mps 759 mmHg 64%
    03:00 +18°C° 0 mm 2 mps 759 mmHg 64%
    04:00 +18°C° 0 mm 2 mps 759 mmHg 65%
    05:00 +18°C° 0 mm 2 mps 759 mmHg 65%
    06:00 +21°C° 0 mm 1 mps 759 mmHg 57%
    07:00 +22°C° 0 mm 1 mps 759 mmHg 48%
    08:00 +24°C° 0 mm 1 mps 760 mmHg 40%
    09:00 +26°C° 0 mm 2 mps 760 mmHg 35%
    10:00 +29°C° 0 mm 2 mps 760 mmHg 29%
    11:00 +31°C° 0 mm 3 mps 760 mmHg 24%
    12:00 +33°C° 0 mm 3 mps 759 mmHg 23%
    13:00 +34°C° 0 mm 4 mps 759 mmHg 22%
    14:00 +34°C° 0 mm 5 mps 759 mmHg 21%
    15:00 +33°C° 0 mm 5 mps 759 mmHg 23%
    16:00 +33°C° 0 mm 6 mps 759 mmHg 25%
    17:00 +32°C° 0 mm 6 mps 758 mmHg 27%
    18:00 +28°C° 0 mm 6 mps 758 mmHg 36%
    19:00 +25°C° 0 mm 5 mps 758 mmHg 46%
    20:00 +22°C° 0 mm 4 mps 758 mmHg 56%
    21:00 +21°C° 0 mm 4 mps 758 mmHg 59%
    22:00 +21°C° 0 mm 4 mps 759 mmHg 62%
    23:00 +20°C° 0 mm 4 mps 759 mmHg 65%

    Day after tomorrow, 1 March, Sunday

    Time Temperature Precipitation Wind Pressure Humidity
    00:00 +20°C° 0 mm 4 mps 758 mmHg 65%
    01:00 +20°C° 0 mm 4 mps 758 mmHg 66%
    02:00 +19°C° 0 mm 4 mps 757 mmHg 66%
    03:00 +19°C° 0 mm 4 mps 757 mmHg 67%
    04:00 +19°C° 0 mm 4 mps 757 mmHg 68%
    05:00 +19°C° 0 mm 3 mps 757 mmHg 70%
    06:00 +21°C° 0 mm 4 mps 757 mmHg 62%
    07:00 +23°C° 0 mm 4 mps 757 mmHg 55%
    08:00 +26°C° 0 mm 4 mps 757 mmHg 48%
    09:00 +29°C° 0 mm 4 mps 757 mmHg 37%
    10:00 +34°C° 0 mm 4 mps 757 mmHg 27%
    11:00 +38°C° 0 mm 4 mps 757 mmHg 16%
    12:00 +40°C° 0 mm 4 mps 756 mmHg 15%
    13:00 +42°C° 0 mm 5 mps 756 mmHg 13%
    14:00 +43°C° 0 mm 5 mps 756 mmHg 11%
    15:00 +42°C° 0 mm 6 mps 755 mmHg 14%
    16:00 +40°C° 0 mm 7 mps 755 mmHg 16%
    17:00 +39°C° 0 mm 7 mps 754 mmHg 19%
    18:00 +35°C° 0 mm 8 mps 754 mmHg 22%
    19:00 +33°C° 0 mm 8 mps 754 mmHg 26%
    20:00 +29°C° 0 mm 8 mps 754 mmHg 30%
    21:00 +29°C° 0 mm 8 mps 754 mmHg 31%
    22:00 +29°C° 0 mm 8 mps 754 mmHg 32%
    23:00 +28°C° 0 mm 7 mps 755 mmHg 34%

    2 March, Monday

    Time Temperature Precipitation Wind Pressure Humidity
    00:00 +28°C° 0 mm 7 mps 754 mmHg 32%
    01:00 +29°C° 0 mm 7 mps 754 mmHg 30%
    02:00 +29°C° 0 mm 7 mps 754 mmHg 28%
    03:00 +29°C° 0 mm 6 mps 754 mmHg 28%
    04:00 +28°C° 0 mm 6 mps 754 mmHg 28%
    05:00 +28°C° 0 mm 5 mps 754 mmHg 28%
    06:00 +30°C° 0 mm 7 mps 754 mmHg 25%
    07:00 +33°C° 0 mm 8 mps 754 mmHg 21%
    08:00 +34°C° 0 mm 9 mps 754 mmHg 17%
    09:00 +38°C° 0 mm 9 mps 754 mmHg 15%
    10:00 +40°C° 0 mm 9 mps 754 mmHg 14%
    11:00 +43°C° 0 mm 9 mps 754 mmHg 12%
    12:00 +44°C° 0 mm 9 mps 754 mmHg 11%
    13:00 +45°C° 0 mm 9 mps 754 mmHg 11%
    14:00 +45°C° 0 mm 9 mps 753 mmHg 11%
    15:00 +45°C° 0 mm 9 mps 753 mmHg 11%
    16:00 +45°C° 0 mm 9 mps 752 mmHg 11%
    17:00 +45°C° 0 mm 9 mps 752 mmHg 11%
    18:00 +43°C° 0 mm 7 mps 752 mmHg 12%
    19:00 +39°C° 0 mm 6 mps 752 mmHg 14%
    20:00 +36°C° 0 mm 5 mps 752 mmHg 15%
    21:00 +36°C° 0 mm 6 mps 752 mmHg 15%
    22:00 +36°C° 0 mm 7 mps 752 mmHg 14%
    23:00 +35°C° 0 mm 8 mps 752 mmHg 13%

    3 March, Tuesday

    Time Temperature Precipitation Wind Pressure Humidity
    00:00 +35°C° 0 mm 8 mps 752 mmHg 13%
    01:00 +35°C° 0 mm 8 mps 752 mmHg 13%
    02:00 +34°C° 0 mm 9 mps 752 mmHg 14%
    03:00 +33°C° 0 mm 8 mps 752 mmHg 15%
    04:00 +32°C° 0 mm 8 mps 752 mmHg 16%
    05:00 +31°C° 0 mm 8 mps 752 mmHg 17%
    06:00 +32°C° 0 mm 8 mps 753 mmHg 17%
    07:00 +33°C° 0 mm 8 mps 753 mmHg 17%
    08:00 +34°C° 0 mm 9 mps 753 mmHg 17%
    09:00 +35°C° 0.1 mm 8 mps 753 mmHg 16%
    10:00 +38°C° 0.1 mm 6 mps 753 mmHg 16%
    11:00 +39°C° 0.1 mm 5 mps 754 mmHg 15%
    12:00 +39°C° 0.1 mm 5 mps 754 mmHg 18%
    13:00 +37°C° 0.1 mm 5 mps 753 mmHg 21%
    14:00 +37°C° 0.1 mm 5 mps 753 mmHg 24%
    15:00 +34°C° 0 mm 6 mps 753 mmHg 30%
    16:00 +32°C° 0 mm 7 mps 753 mmHg 36%
    17:00 +29°C° 0 mm 7 mps 753 mmHg 42%
    18:00 +27°C° 0 mm 7 mps 753 mmHg 48%
    19:00 +24°C° 0 mm 7 mps 753 mmHg 54%
    20:00 +22°C° 0 mm 7 mps 754 mmHg 61%
    21:00 +22°C° 0 mm 7 mps 754 mmHg 63%
    22:00 +22°C° 0 mm 7 mps 755 mmHg 65%
    23:00 +21°C° 0 mm 7 mps 755 mmHg 67%

    4 March, Wednesday

    Time Temperature Precipitation Wind Pressure Humidity
    00:00 +21°C° 0 mm 7 mps 755 mmHg 68%
    01:00 +20°C° 0 mm 7 mps 755 mmHg 70%
    02:00 +20°C° 0 mm 7 mps 755 mmHg 71%
    03:00 +20°C° 0 mm 7 mps 755 mmHg 71%
    04:00 +19°C° 0 mm 6 mps 755 mmHg 72%
    05:00 +19°C° 0 mm 6 mps 756 mmHg 73%
    06:00 +20°C° 0 mm 6 mps 756 mmHg 69%
    07:00 +21°C° 0 mm 6 mps 756 mmHg 65%
    08:00 +22°C° 0 mm 6 mps 756 mmHg 61%
    09:00 +25°C° 0 mm 5 mps 756 mmHg 54%
    10:00 +27°C° 0 mm 5 mps 756 mmHg 48%
    11:00 +29°C° 0 mm 4 mps 756 mmHg 41%
    12:00 +32°C° 0 mm 4 mps 756 mmHg 38%
    13:00 +33°C° 0 mm 4 mps 756 mmHg 36%
    14:00 +34°C° 0 mm 4 mps 756 mmHg 33%
    15:00 +33°C° 0 mm 5 mps 755 mmHg 38%
    16:00 +30°C° 0 mm 6 mps 755 mmHg 43%
    17:00 +29°C° 0 mm 7 mps 754 mmHg 48%
    18:00 +27°C° 0 mm 6 mps 754 mmHg 54%
    19:00 +23°C° 0 mm 6 mps 754 mmHg 61%
    20:00 +21°C° 0 mm 6 mps 754 mmHg 67%
    21:00 +22°C° 0 mm 5 mps 755 mmHg 65%
    22:00 +22°C° 0 mm 5 mps 755 mmHg 64%
    23:00 +22°C° 0 mm 4 mps 755 mmHg 62%
    Show more